AFL1505 USTR-UUEE

Flight info

Callsign AFL1505
Flight time 2h 31m
Altitude 36000
Route K0846F360 BEPAR1R BEPAR T448 BANAM T348 EKB M864 AGNOK T796 ORTIM L158 DIMGI DIMGI3W
Aircraft B738/M-SADIE2E3FGHJ1RWY/LB1U1

Departure

Time 2026-04-22 12:30
Airport Roshchino International Airport (USTR)

Arrival

Time 2026-04-22 15:02
Airport Sheremetyevo International Airport (UUEE)
Time Latitude Longitude Altitude Speed Heading
2026-04-22 12:06 57.18019 65.34911 339 ft 0 kts 44°
2026-04-22 12:18 57.18011 65.34896 339 ft 4 kts 45°
2026-04-22 12:19 57.17992 65.34861 337 ft 4 kts 49°
2026-04-22 12:19 57.17977 65.34821 334 ft 4 kts 72°
2026-04-22 12:19 57.17976 65.34788 334 ft 1 kts 134°
2026-04-22 12:19 57.17977 65.34787 334 ft 0 kts 135°
2026-04-22 12:23 57.17976 65.34790 334 ft 1 kts 122°
2026-04-22 12:23 57.17980 65.34799 334 ft 1 kts 47°
2026-04-22 12:23 57.17987 65.34789 337 ft 2 kts 314°
2026-04-22 12:24 57.18008 65.34745 334 ft 7 kts 309°
2026-04-22 12:24 57.18045 65.34661 336 ft 10 kts 309°
2026-04-22 12:24 57.18104 65.34550 338 ft 14 kts 315°
2026-04-22 12:24 57.18178 65.34412 338 ft 17 kts 316°
2026-04-22 12:25 57.18267 65.34250 339 ft 19 kts 315°
2026-04-22 12:25 57.18363 65.34073 337 ft 19 kts 315°
2026-04-22 12:25 57.18455 65.33902 338 ft 19 kts 315°
2026-04-22 12:25 57.18544 65.33736 339 ft 18 kts 314°
2026-04-22 12:26 57.18616 65.33577 337 ft 15 kts 285°
2026-04-22 12:26 57.18616 65.33386 336 ft 15 kts 257°
2026-04-22 12:26 57.18550 65.33231 335 ft 17 kts 226°
2026-04-22 12:26 57.18478 65.33039 332 ft 19 kts 263°
2026-04-22 12:27 57.18473 65.32796 329 ft 19 kts 268°
2026-04-22 12:27 57.18469 65.32552 327 ft 20 kts 268°
2026-04-22 12:27 57.18464 65.32301 330 ft 12 kts 268°
2026-04-22 12:27 57.18482 65.32165 333 ft 11 kts 310°
2026-04-22 12:28 57.18539 65.32067 332 ft 12 kts 318°
2026-04-22 12:28 57.18601 65.31965 331 ft 13 kts 318°
2026-04-22 12:28 57.18668 65.31853 333 ft 13 kts 318°
2026-04-22 12:28 57.18701 65.31718 341 ft 13 kts 242°
2026-04-22 12:29 57.18644 65.31597 347 ft 12 kts 227°
2026-04-22 12:29 57.18484 65.31273 356 ft 66 kts 227°
2026-04-22 12:29 57.18028 65.30351 374 ft 127 kts 227°
2026-04-22 12:29 57.17334 65.28914 505 ft 166 kts 229°
2026-04-22 12:30 57.16440 65.25138 1927 ft 174 kts 266°
2026-04-22 12:30 57.16393 65.22843 2555 ft 184 kts 266°
2026-04-22 12:30 57.16358 65.20438 3075 ft 193 kts 267°
2026-04-22 12:31 57.16314 65.17898 3511 ft 204 kts 267°
2026-04-22 12:31 57.16256 65.15206 3939 ft 217 kts 266°
2026-04-22 12:31 57.16181 65.12267 4149 ft 243 kts 266°
2026-04-22 12:31 57.16117 65.09102 4872 ft 247 kts 266°
2026-04-22 12:32 57.16054 65.05946 5738 ft 248 kts 266°
2026-04-22 12:32 57.15915 64.99524 7325 ft 250 kts 266°
2026-04-22 12:32 57.15842 64.96342 8180 ft 248 kts 266°
2026-04-22 12:33 57.15766 64.93163 8990 ft 248 kts 266°
2026-04-22 12:33 57.15689 64.89982 9794 ft 248 kts 266°
2026-04-22 12:33 57.15608 64.86733 10190 ft 264 kts 266°
2026-04-22 12:33 57.15518 64.83217 10355 ft 285 kts 266°
2026-04-22 12:34 57.15420 64.79442 10525 ft 306 kts 266°
2026-04-22 12:34 57.15315 64.75428 10817 ft 320 kts 266°
2026-04-22 12:34 57.15207 64.71297 11392 ft 325 kts 266°
2026-04-22 12:34 57.15097 64.67139 12105 ft 326 kts 266°
2026-04-22 12:35 57.14984 64.62956 12841 ft 328 kts 266°
2026-04-22 12:35 57.14870 64.58748 13537 ft 331 kts 266°
2026-04-22 12:35 57.14752 64.54504 14188 ft 333 kts 265°
2026-04-22 12:35 57.14632 64.50244 14896 ft 334 kts 265°
2026-04-22 12:36 57.14508 64.45965 15589 ft 336 kts 265°
2026-04-22 12:36 57.14379 64.41711 16247 ft 338 kts 265°
2026-04-22 12:36 57.14244 64.37312 16920 ft 341 kts 264°
2026-04-22 12:36 57.14109 64.32945 17595 ft 343 kts 264°
2026-04-22 12:37 57.13971 64.28542 18171 ft 347 kts 264°
2026-04-22 12:37 57.13832 64.24143 18680 ft 350 kts 264°
2026-04-22 12:37 57.13690 64.19677 19324 ft 349 kts 264°
2026-04-22 12:37 57.13547 64.15212 19949 ft 349 kts 264°
2026-04-22 12:38 57.13400 64.10678 20521 ft 351 kts 264°
2026-04-22 12:38 57.13254 64.06242 21066 ft 353 kts 263°
2026-04-22 12:38 57.13102 64.01669 21618 ft 354 kts 263°
2026-04-22 12:38 57.12952 63.97192 22156 ft 355 kts 263°
2026-04-22 12:39 57.12848 63.94127 22521 ft 356 kts 263°
2026-04-22 12:39 57.12484 63.83487 23614 ft 360 kts 263°
2026-04-22 12:39 57.12322 63.78868 24022 ft 364 kts 263°
2026-04-22 12:40 57.12172 63.74187 24322 ft 368 kts 264°
2026-04-22 12:40 57.12102 63.69466 24699 ft 371 kts 265°
2026-04-22 12:40 57.12078 63.66256 24961 ft 372 kts 265°
2026-04-22 12:40 57.12055 63.61475 25281 ft 375 kts 265°
2026-04-22 12:41 57.12025 63.55096 25750 ft 378 kts 265°
2026-04-22 12:41 57.12008 63.51829 25976 ft 379 kts 265°
2026-04-22 12:41 57.11977 63.46973 26316 ft 381 kts 265°
2026-04-22 12:41 57.11941 63.42088 26639 ft 383 kts 265°
2026-04-22 12:42 57.11901 63.37181 26963 ft 385 kts 265°
2026-04-22 12:42 57.11858 63.32243 27274 ft 387 kts 265°
2026-04-22 12:42 57.11811 63.27281 27579 ft 389 kts 265°
2026-04-22 12:42 57.11761 63.22301 27892 ft 391 kts 265°
2026-04-22 12:43 57.11709 63.17298 28191 ft 392 kts 264°
2026-04-22 12:43 57.11655 63.12305 28627 ft 390 kts 264°
2026-04-22 12:43 57.11601 63.07380 29123 ft 388 kts 264°
2026-04-22 12:43 57.11545 63.02435 29578 ft 386 kts 264°
2026-04-22 12:44 57.11486 62.97491 29891 ft 387 kts 264°
2026-04-22 12:44 57.11424 62.92537 30098 ft 389 kts 264°
2026-04-22 12:44 57.11359 62.87541 30319 ft 391 kts 264°
2026-04-22 12:44 57.11292 62.82539 30590 ft 391 kts 264°
2026-04-22 12:45 57.11224 62.77532 30832 ft 393 kts 264°
2026-04-22 12:45 57.11153 62.72490 31057 ft 395 kts 264°
2026-04-22 12:45 57.11080 62.67440 31304 ft 396 kts 264°
2026-04-22 12:45 57.11005 62.62375 31560 ft 397 kts 264°
2026-04-22 12:46 57.10927 62.57295 31783 ft 398 kts 264°
2026-04-22 12:46 57.10847 62.52196 32015 ft 399 kts 264°
2026-04-22 12:46 57.10765 62.47081 32256 ft 400 kts 264°
2026-04-22 12:46 57.10681 62.41948 32513 ft 402 kts 264°
2026-04-22 12:47 57.10594 62.36774 32531 ft 409 kts 264°
2026-04-22 12:47 57.10502 62.31526 32651 ft 412 kts 264°
2026-04-22 12:47 57.10409 62.26258 32945 ft 411 kts 264°
2026-04-22 12:47 57.10315 62.21006 33236 ft 411 kts 264°
2026-04-22 12:48 57.10218 62.15745 33443 ft 412 kts 264°
2026-04-22 12:48 57.10118 62.10469 33656 ft 414 kts 264°
2026-04-22 12:48 57.10016 62.05185 33877 ft 414 kts 264°
2026-04-22 12:48 57.09911 61.99892 34067 ft 414 kts 264°
2026-04-22 12:49 57.09804 61.94596 34263 ft 415 kts 264°
2026-04-22 12:49 57.09694 61.89289 34442 ft 415 kts 264°
2026-04-22 12:49 57.09583 61.83981 34638 ft 416 kts 264°
2026-04-22 12:50 57.09349 61.73282 34717 ft 421 kts 264°
2026-04-22 12:50 57.09109 61.62605 34716 ft 419 kts 264°
2026-04-22 12:51 57.08862 61.51965 34725 ft 414 kts 264°
2026-04-22 12:51 57.08607 61.41422 34719 ft 412 kts 264°
2026-04-22 12:52 57.08343 61.30919 34722 ft 410 kts 264°
2026-04-22 12:52 57.08071 61.20451 34726 ft 411 kts 264°
2026-04-22 12:53 57.07789 61.09952 34727 ft 412 kts 264°
2026-04-22 12:53 57.07497 60.99396 34733 ft 415 kts 264°
2026-04-22 12:54 57.07193 60.88758 34736 ft 419 kts 264°
2026-04-22 12:54 57.06878 60.78029 34730 ft 422 kts 264°
2026-04-22 12:55 57.06553 60.67239 34730 ft 424 kts 264°
2026-04-22 12:55 57.06216 60.56388 34727 ft 426 kts 264°
2026-04-22 12:56 57.05870 60.45527 34727 ft 426 kts 264°
2026-04-22 12:56 57.05514 60.34671 34719 ft 426 kts 263°
2026-04-22 12:57 57.05150 60.23832 34720 ft 424 kts 263°
2026-04-22 12:57 57.04777 60.13031 34721 ft 423 kts 263°
2026-04-22 12:58 57.04396 60.02262 34717 ft 422 kts 263°
2026-04-22 12:58 57.04007 59.91531 34719 ft 421 kts 263°
2026-04-22 12:59 57.03609 59.80826 34718 ft 420 kts 263°
2026-04-22 12:59 57.03203 59.70143 34719 ft 419 kts 263°
2026-04-22 13:00 57.02787 59.59453 34733 ft 420 kts 263°
2026-04-22 13:00 57.02362 59.48741 34723 ft 422 kts 263°
2026-04-22 13:01 57.01925 59.37993 34723 ft 423 kts 263°
2026-04-22 13:01 57.01478 59.27207 34721 ft 424 kts 263°
2026-04-22 13:02 57.01024 59.16465 34716 ft 426 kts 263°
2026-04-22 13:02 57.00556 59.05621 34702 ft 427 kts 263°
2026-04-22 13:03 57.00077 58.94749 34715 ft 428 kts 263°
2026-04-22 13:03 56.99588 58.83864 34712 ft 429 kts 263°
2026-04-22 13:04 56.99088 58.72962 34714 ft 429 kts 262°
2026-04-22 13:04 56.98580 58.62074 34712 ft 429 kts 262°
2026-04-22 13:05 56.98062 58.51183 34708 ft 429 kts 262°
2026-04-22 13:05 56.97535 58.40302 34707 ft 428 kts 262°
2026-04-22 13:06 56.97000 58.29449 34725 ft 428 kts 262°
2026-04-22 13:06 56.96455 58.18599 34721 ft 427 kts 262°
2026-04-22 13:07 56.95900 58.07749 34714 ft 427 kts 262°
2026-04-22 13:07 56.95337 57.96924 34712 ft 427 kts 262°
2026-04-22 13:08 56.94765 57.86094 34714 ft 427 kts 262°
2026-04-22 13:08 56.94183 57.75277 34709 ft 427 kts 262°
2026-04-22 13:09 56.93593 57.64459 34708 ft 427 kts 262°
2026-04-22 13:09 56.92996 57.53718 34708 ft 427 kts 262°
2026-04-22 13:10 56.92386 57.42896 34709 ft 428 kts 262°
2026-04-22 13:10 56.91766 57.32069 34709 ft 428 kts 262°
2026-04-22 13:11 56.91136 57.21226 34707 ft 428 kts 262°
2026-04-22 13:11 56.90497 57.10396 34706 ft 429 kts 261°
2026-04-22 13:12 56.89846 56.99549 34704 ft 429 kts 261°
2026-04-22 13:12 56.89186 56.88685 34709 ft 430 kts 262°
2026-04-22 13:13 56.88515 56.77813 34703 ft 431 kts 261°
2026-04-22 13:13 56.87834 56.66924 34702 ft 431 kts 261°
2026-04-22 13:14 56.87142 56.56027 34711 ft 432 kts 261°
2026-04-22 13:14 56.86440 56.45130 34704 ft 432 kts 261°
2026-04-22 13:15 56.85729 56.34223 34707 ft 432 kts 261°
2026-04-22 13:15 56.85007 56.23307 34708 ft 432 kts 261°
2026-04-22 13:16 56.84276 56.12406 34706 ft 432 kts 261°
2026-04-22 13:16 56.83535 56.01514 34703 ft 432 kts 261°
2026-04-22 13:17 56.82785 55.90622 34706 ft 432 kts 261°
2026-04-22 13:17 56.82031 55.79805 34704 ft 432 kts 261°
2026-04-22 13:18 56.81262 55.68926 34711 ft 432 kts 261°
2026-04-22 13:18 56.80484 55.58049 34722 ft 433 kts 261°
2026-04-22 13:19 56.79695 55.47157 34717 ft 433 kts 261°
2026-04-22 13:19 56.78895 55.36256 34713 ft 434 kts 261°
2026-04-22 13:20 56.78085 55.25340 34724 ft 434 kts 261°
2026-04-22 13:20 56.77264 55.14419 34724 ft 435 kts 261°
2026-04-22 13:21 56.76433 55.03491 34713 ft 436 kts 261°
2026-04-22 13:21 56.75589 54.92537 34723 ft 436 kts 260°
2026-04-22 13:22 56.74737 54.81598 34720 ft 437 kts 260°
2026-04-22 13:22 56.73874 54.70643 34720 ft 437 kts 260°
2026-04-22 13:23 56.73001 54.59692 34713 ft 437 kts 260°
2026-04-22 13:23 56.72119 54.48746 34721 ft 437 kts 260°
2026-04-22 13:24 56.71381 54.39683 34724 ft 437 kts 260°
2026-04-22 13:24 56.70619 54.30439 34741 ft 438 kts 260°
2026-04-22 13:24 56.70163 54.24938 34897 ft 440 kts 260°
2026-04-22 13:25 56.69705 54.19445 35122 ft 439 kts 260°
2026-04-22 13:25 56.69247 54.13961 35400 ft 438 kts 260°
2026-04-22 13:25 56.68787 54.08498 35649 ft 437 kts 260°
2026-04-22 13:26 56.67855 53.97515 35718 ft 441 kts 260°
2026-04-22 13:26 56.66912 53.86529 35711 ft 438 kts 260°
2026-04-22 13:27 56.66126 53.77458 35721 ft 436 kts 260°
2026-04-22 13:27 56.65015 53.64774 35721 ft 434 kts 260°
2026-04-22 13:28 56.64219 53.55788 35718 ft 433 kts 259°
2026-04-22 13:28 56.63256 53.45003 35722 ft 432 kts 259°
2026-04-22 13:29 56.62282 53.34219 35723 ft 433 kts 259°
2026-04-22 13:29 56.61297 53.23413 35717 ft 435 kts 259°
2026-04-22 13:30 56.60297 53.12555 35724 ft 437 kts 259°
2026-04-22 13:30 56.59283 53.01654 35722 ft 439 kts 259°
2026-04-22 13:31 56.58256 52.90714 35715 ft 440 kts 259°
2026-04-22 13:31 56.57216 52.79749 35719 ft 442 kts 259°
2026-04-22 13:32 56.56164 52.68770 35710 ft 442 kts 259°
2026-04-22 13:32 56.55101 52.57785 35708 ft 442 kts 259°
2026-04-22 13:33 56.54029 52.46807 35710 ft 442 kts 259°
2026-04-22 13:33 56.52955 52.35918 35711 ft 442 kts 259°
2026-04-22 13:34 56.51867 52.24987 35712 ft 441 kts 259°
2026-04-22 13:34 56.50770 52.14063 35703 ft 440 kts 259°
2026-04-22 13:35 56.49666 52.03176 35704 ft 439 kts 259°
2026-04-22 13:35 56.48555 51.92322 35701 ft 439 kts 258°
2026-04-22 13:36 56.47434 51.81462 35704 ft 438 kts 258°
2026-04-22 13:36 56.46306 51.70642 35704 ft 438 kts 258°
2026-04-22 13:37 56.45169 51.59818 35702 ft 438 kts 258°
2026-04-22 13:37 56.44021 51.48997 35698 ft 438 kts 258°
2026-04-22 13:38 56.42864 51.38185 35701 ft 439 kts 258°
2026-04-22 13:38 56.41107 51.21945 35705 ft 440 kts 258°
2026-04-22 13:39 56.39923 51.11115 35700 ft 440 kts 258°
2026-04-22 13:39 56.38734 51.00336 35703 ft 441 kts 258°
2026-04-22 13:40 56.37527 50.89482 35705 ft 441 kts 258°
2026-04-22 13:40 56.36301 50.78550 35697 ft 442 kts 258°
2026-04-22 13:41 56.35080 50.67762 35714 ft 442 kts 258°
2026-04-22 13:41 56.33842 50.56908 35709 ft 442 kts 258°
2026-04-22 13:42 56.32594 50.46056 35711 ft 443 kts 258°
2026-04-22 13:42 56.31335 50.35197 35717 ft 443 kts 258°
2026-04-22 13:43 56.30066 50.24338 35710 ft 443 kts 258°
2026-04-22 13:43 56.28786 50.13484 35708 ft 443 kts 258°
2026-04-22 13:44 56.27498 50.02639 35708 ft 443 kts 258°
2026-04-22 13:44 56.26199 49.91796 35710 ft 443 kts 257°
2026-04-22 13:45 56.24892 49.80967 35709 ft 443 kts 257°
2026-04-22 13:45 56.23572 49.70124 35708 ft 444 kts 257°
2026-04-22 13:46 56.22246 49.59308 35703 ft 444 kts 257°
2026-04-22 13:46 56.20917 49.48554 35708 ft 444 kts 257°
2026-04-22 13:47 56.19571 49.37745 35704 ft 444 kts 257°
2026-04-22 13:47 56.18212 49.26923 35707 ft 444 kts 257°
2026-04-22 13:48 56.16846 49.16118 35706 ft 444 kts 257°
2026-04-22 13:48 56.15468 49.05310 35711 ft 444 kts 257°
2026-04-22 13:49 56.14083 48.94522 35702 ft 445 kts 257°
2026-04-22 13:49 56.12686 48.83720 35703 ft 444 kts 257°
2026-04-22 13:50 56.11280 48.72934 35703 ft 444 kts 257°
2026-04-22 13:50 56.09867 48.62169 35708 ft 444 kts 257°
2026-04-22 13:51 56.08442 48.51395 35698 ft 444 kts 257°
2026-04-22 13:51 56.07009 48.40641 35709 ft 444 kts 257°
2026-04-22 13:52 56.05567 48.29895 35698 ft 444 kts 256°
2026-04-22 13:52 56.04118 48.19176 35708 ft 444 kts 256°
2026-04-22 13:53 56.02657 48.08442 35701 ft 444 kts 256°
2026-04-22 13:53 56.01186 47.97715 35705 ft 445 kts 256°
2026-04-22 13:54 55.99704 47.86982 35703 ft 445 kts 256°
2026-04-22 13:54 55.98214 47.76265 35700 ft 445 kts 256°
2026-04-22 13:55 55.96710 47.65526 35693 ft 446 kts 256°
2026-04-22 13:55 55.95197 47.54800 35698 ft 446 kts 256°
2026-04-22 13:56 55.93672 47.44059 35692 ft 447 kts 256°
2026-04-22 13:56 55.92136 47.33313 35703 ft 447 kts 256°
2026-04-22 13:57 55.90599 47.22640 35698 ft 448 kts 256°
2026-04-22 13:57 55.89041 47.11885 35701 ft 448 kts 256°
2026-04-22 13:58 55.87474 47.01145 35696 ft 448 kts 256°
2026-04-22 13:58 55.85893 46.90383 35703 ft 448 kts 256°
2026-04-22 13:59 55.84307 46.79661 35699 ft 448 kts 256°
2026-04-22 13:59 55.82726 46.69036 35702 ft 447 kts 256°
2026-04-22 14:00 55.81127 46.58344 35701 ft 447 kts 255°
2026-04-22 14:00 55.79657 46.47620 35698 ft 446 kts 263°
2026-04-22 14:01 55.79625 46.36647 35707 ft 445 kts 274°
2026-04-22 14:01 55.80048 46.25657 35703 ft 446 kts 274°
2026-04-22 14:02 55.80441 46.14663 35692 ft 447 kts 274°
2026-04-22 14:02 55.80795 46.03613 35700 ft 448 kts 273°
2026-04-22 14:03 55.81128 45.92555 35695 ft 448 kts 273°
2026-04-22 14:03 55.81450 45.81494 35689 ft 449 kts 273°
2026-04-22 14:04 55.81763 45.70400 35698 ft 449 kts 274°
2026-04-22 14:04 55.82067 45.59310 35687 ft 449 kts 273°
2026-04-22 14:05 55.82361 45.48217 35693 ft 449 kts 273°
2026-04-22 14:06 55.82784 45.31576 35692 ft 449 kts 273°
2026-04-22 14:06 55.83053 45.20503 35688 ft 448 kts 273°
2026-04-22 14:07 55.83312 45.09420 35685 ft 448 kts 273°
2026-04-22 14:07 55.83561 44.98422 35678 ft 448 kts 273°
2026-04-22 14:08 55.83801 44.87355 35681 ft 448 kts 273°
2026-04-22 14:08 55.84035 44.76284 35685 ft 448 kts 273°
2026-04-22 14:09 55.84260 44.65195 35685 ft 449 kts 273°
2026-04-22 14:09 55.84475 44.54091 35681 ft 449 kts 273°
2026-04-22 14:10 55.84681 44.42976 35681 ft 450 kts 272°
2026-04-22 14:10 55.84876 44.31849 35677 ft 450 kts 272°
2026-04-22 14:11 55.85062 44.20709 35679 ft 451 kts 272°
2026-04-22 14:11 55.85238 44.09567 35665 ft 451 kts 272°
2026-04-22 14:12 55.85404 43.98412 35678 ft 451 kts 272°
2026-04-22 14:12 55.85559 43.87263 35680 ft 451 kts 272°
2026-04-22 14:13 55.85705 43.76115 35677 ft 450 kts 272°
2026-04-22 14:13 55.85841 43.64972 35673 ft 450 kts 272°
2026-04-22 14:14 55.85968 43.53832 35688 ft 450 kts 272°
2026-04-22 14:14 55.86088 43.42689 35674 ft 450 kts 272°
2026-04-22 14:15 55.86204 43.31631 35674 ft 449 kts 272°
2026-04-22 14:15 55.86311 43.20520 35679 ft 449 kts 272°
2026-04-22 14:16 55.86409 43.09407 35678 ft 449 kts 272°
2026-04-22 14:16 55.86496 42.98295 35679 ft 449 kts 272°
2026-04-22 14:17 55.86573 42.87194 35679 ft 449 kts 272°
2026-04-22 14:17 55.86639 42.76083 35674 ft 448 kts 272°
2026-04-22 14:18 55.86696 42.64980 35678 ft 448 kts 272°
2026-04-22 14:18 55.86743 42.53891 35674 ft 448 kts 272°
2026-04-22 14:19 55.86780 42.42789 35668 ft 448 kts 272°
2026-04-22 14:19 55.86804 42.33561 35677 ft 448 kts 272°
2026-04-22 14:20 55.86829 42.15102 35676 ft 449 kts 271°
2026-04-22 14:20 55.86832 42.05777 35676 ft 450 kts 271°
2026-04-22 14:21 55.86820 41.89076 35674 ft 450 kts 271°
2026-04-22 14:22 55.86718 41.72359 35675 ft 450 kts 269°
2026-04-22 14:23 55.86158 41.55662 35664 ft 450 kts 268°
2026-04-22 14:23 55.85779 41.44659 35670 ft 450 kts 268°
2026-04-22 14:24 55.85415 41.33545 35665 ft 450 kts 268°
2026-04-22 14:24 55.85051 41.22438 35668 ft 450 kts 268°
2026-04-22 14:25 55.84676 41.11338 35667 ft 449 kts 268°
2026-04-22 14:25 55.84291 41.00255 35664 ft 449 kts 268°
2026-04-22 14:26 55.83895 40.89164 35487 ft 452 kts 268°
2026-04-22 14:26 55.83709 40.84041 34958 ft 456 kts 269°
2026-04-22 14:26 55.83504 40.78437 34366 ft 454 kts 269°
2026-04-22 14:26 55.83295 40.72817 33750 ft 454 kts 269°
2026-04-22 14:27 55.83084 40.67240 33213 ft 451 kts 269°
2026-04-22 14:27 55.82872 40.61702 32696 ft 446 kts 269°
2026-04-22 14:27 55.82655 40.56219 32202 ft 442 kts 269°
2026-04-22 14:27 55.82433 40.50795 31734 ft 438 kts 269°
2026-04-22 14:28 55.82211 40.45424 31283 ft 433 kts 269°
2026-04-22 14:28 55.81990 40.40121 30839 ft 429 kts 269°
2026-04-22 14:28 55.81772 40.34929 30400 ft 424 kts 269°
2026-04-22 14:28 55.81552 40.29737 29975 ft 420 kts 269°
2026-04-22 14:29 55.81333 40.24584 29516 ft 416 kts 269°
2026-04-22 14:29 55.81175 40.20916 29162 ft 413 kts 269°
2026-04-22 14:29 55.80955 40.15820 28708 ft 408 kts 269°
2026-04-22 14:29 55.80736 40.10821 28263 ft 403 kts 269°
2026-04-22 14:30 55.80519 40.05890 27799 ft 398 kts 269°
2026-04-22 14:30 55.80306 40.01079 27383 ft 394 kts 269°
2026-04-22 14:30 55.80090 39.96269 26941 ft 391 kts 269°
2026-04-22 14:30 55.79875 39.91481 26517 ft 387 kts 269°
2026-04-22 14:31 55.79659 39.86728 26099 ft 384 kts 269°
2026-04-22 14:31 55.79441 39.82013 25680 ft 381 kts 269°
2026-04-22 14:31 55.79195 39.77356 25444 ft 375 kts 268°
2026-04-22 14:31 55.78897 39.72774 25235 ft 377 kts 267°
2026-04-22 14:32 55.78578 39.68063 25026 ft 389 kts 267°
2026-04-22 14:32 55.78258 39.63363 24793 ft 393 kts 267°
2026-04-22 14:32 55.77941 39.58687 24557 ft 391 kts 267°
2026-04-22 14:32 55.77621 39.53910 24314 ft 389 kts 267°
2026-04-22 14:33 55.77304 39.49160 24084 ft 386 kts 267°
2026-04-22 14:33 55.76987 39.44439 23867 ft 384 kts 267°
2026-04-22 14:33 55.76821 39.39739 23613 ft 377 kts 279°
2026-04-22 14:33 55.77415 39.35275 23409 ft 369 kts 291°
2026-04-22 14:34 55.78181 39.30927 23146 ft 369 kts 291°
2026-04-22 14:34 55.78950 39.26604 22865 ft 368 kts 291°
2026-04-22 14:34 55.79717 39.22268 22599 ft 367 kts 291°
2026-04-22 14:34 55.80472 39.17945 22336 ft 365 kts 291°
2026-04-22 14:35 55.81217 39.13637 22128 ft 363 kts 291°
2026-04-22 14:35 55.81953 39.09345 21875 ft 363 kts 290°
2026-04-22 14:35 55.82682 39.05067 21638 ft 362 kts 290°
2026-04-22 14:35 55.83408 39.00785 21401 ft 361 kts 290°
2026-04-22 14:36 55.84129 38.96519 21162 ft 360 kts 290°
2026-04-22 14:36 55.84846 38.92260 20916 ft 358 kts 290°
2026-04-22 14:36 55.85506 38.88332 20706 ft 356 kts 290°
2026-04-22 14:36 55.86213 38.84116 20472 ft 355 kts 290°
2026-04-22 14:37 55.86914 38.79924 20245 ft 353 kts 290°
2026-04-22 14:37 55.87610 38.75751 20014 ft 351 kts 290°
2026-04-22 14:37 55.88302 38.71590 19783 ft 349 kts 289°
2026-04-22 14:37 55.88884 38.68084 19591 ft 348 kts 289°
2026-04-22 14:38 55.89566 38.63971 19361 ft 346 kts 289°
2026-04-22 14:38 55.90241 38.59887 19139 ft 345 kts 289°
2026-04-22 14:38 55.90918 38.55785 18915 ft 344 kts 289°
2026-04-22 14:38 55.91587 38.51721 18692 ft 343 kts 289°
2026-04-22 14:39 55.92255 38.47653 18462 ft 341 kts 289°
2026-04-22 14:39 55.92919 38.43595 18241 ft 340 kts 289°
2026-04-22 14:39 55.93579 38.39558 18007 ft 339 kts 289°
2026-04-22 14:40 55.94887 38.31521 17523 ft 335 kts 289°
2026-04-22 14:40 55.95532 38.27549 17286 ft 332 kts 289°
2026-04-22 14:40 55.96171 38.23601 17061 ft 330 kts 289°
2026-04-22 14:40 55.96803 38.19684 16848 ft 328 kts 289°
2026-04-22 14:41 55.97430 38.15795 16633 ft 326 kts 289°
2026-04-22 14:41 55.98057 38.11909 16425 ft 324 kts 289°
2026-04-22 14:41 55.98635 38.08306 16227 ft 323 kts 289°
2026-04-22 14:41 55.99252 38.04451 16009 ft 322 kts 288°
2026-04-22 14:42 55.99885 38.00601 15785 ft 315 kts 293°
2026-04-22 14:42 56.00975 37.97388 15581 ft 302 kts 314°
2026-04-22 14:42 56.02560 37.95004 15290 ft 297 kts 330°
2026-04-22 14:42 56.04376 37.93319 15036 ft 292 kts 334°
2026-04-22 14:43 56.06200 37.91769 14758 ft 288 kts 334°
2026-04-22 14:43 56.08007 37.90253 14487 ft 285 kts 334°
2026-04-22 14:43 56.09797 37.88742 14224 ft 283 kts 334°
2026-04-22 14:43 56.11567 37.87236 13962 ft 281 kts 333°
2026-04-22 14:44 56.13325 37.85731 13712 ft 279 kts 333°
2026-04-22 14:44 56.15069 37.84230 13453 ft 278 kts 333°
2026-04-22 14:44 56.16809 37.82728 13161 ft 277 kts 333°
2026-04-22 14:44 56.18541 37.81228 12881 ft 276 kts 333°
2026-04-22 14:45 56.20271 37.79728 12622 ft 275 kts 333°
2026-04-22 14:45 56.21992 37.78232 12358 ft 275 kts 333°
2026-04-22 14:45 56.23707 37.76742 12094 ft 274 kts 333°
2026-04-22 14:45 56.25433 37.75238 11581 ft 281 kts 333°
2026-04-22 14:46 56.27179 37.73718 11258 ft 278 kts 333°
2026-04-22 14:46 56.28902 37.72216 11089 ft 272 kts 333°
2026-04-22 14:46 56.30476 37.70464 10977 ft 261 kts 315°
2026-04-22 14:46 56.31635 37.68035 10937 ft 253 kts 310°
2026-04-22 14:47 56.32753 37.65587 10764 ft 254 kts 310°
2026-04-22 14:47 56.33881 37.63129 10570 ft 253 kts 310°
2026-04-22 14:47 56.34995 37.60709 10391 ft 248 kts 309°
2026-04-22 14:47 56.36088 37.58335 10203 ft 244 kts 309°
2026-04-22 14:48 56.37165 37.55995 10049 ft 239 kts 309°
2026-04-22 14:48 56.38159 37.53654 9986 ft 233 kts 304°
2026-04-22 14:48 56.39043 37.51221 9835 ft 235 kts 303°
2026-04-22 14:48 56.39938 37.48732 9578 ft 235 kts 303°
2026-04-22 14:49 56.40817 37.46253 9357 ft 233 kts 299°
2026-04-22 14:49 56.41201 37.43473 9156 ft 232 kts 270°
2026-04-22 14:49 56.40805 37.40659 8998 ft 236 kts 245°
2026-04-22 14:49 56.39751 37.38361 8822 ft 243 kts 220°
2026-04-22 14:50 56.38226 37.36991 8680 ft 248 kts 203°
2026-04-22 14:50 56.36582 37.35999 8495 ft 250 kts 202°
2026-04-22 14:50 56.34922 37.35022 8307 ft 252 kts 202°
2026-04-22 14:50 56.33260 37.34036 8125 ft 252 kts 202°
2026-04-22 14:51 56.31595 37.33041 7939 ft 253 kts 202°
2026-04-22 14:51 56.29926 37.32037 7760 ft 253 kts 202°
2026-04-22 14:51 56.28260 37.31031 7583 ft 253 kts 202°
2026-04-22 14:51 56.26604 37.30032 7398 ft 248 kts 202°
2026-04-22 14:52 56.24947 37.29407 7194 ft 251 kts 180°
2026-04-22 14:52 56.23253 37.30113 7076 ft 250 kts 167°
2026-04-22 14:52 56.21561 37.30990 6886 ft 251 kts 168°
2026-04-22 14:52 56.19880 37.31837 6715 ft 251 kts 168°
2026-04-22 14:53 56.18218 37.32666 6542 ft 252 kts 168°
2026-04-22 14:53 56.16589 37.33942 6335 ft 258 kts 142°
2026-04-22 14:53 56.15564 37.36554 6176 ft 258 kts 110°
2026-04-22 14:53 56.15057 37.39589 6007 ft 255 kts 104°
2026-04-22 14:54 56.14616 37.42617 5806 ft 254 kts 104°
2026-04-22 14:54 56.14176 37.45662 5603 ft 251 kts 104°
2026-04-22 14:54 56.13728 37.48725 5404 ft 249 kts 105°
2026-04-22 14:54 56.13292 37.51677 5206 ft 247 kts 105°
2026-04-22 14:55 56.12850 37.54647 5041 ft 246 kts 105°
2026-04-22 14:55 56.12400 37.57650 4860 ft 246 kts 105°
2026-04-22 14:55 56.11958 37.60568 4697 ft 246 kts 106°
2026-04-22 14:55 56.11502 37.63566 4419 ft 247 kts 106°
2026-04-22 14:56 56.11047 37.66533 4135 ft 247 kts 108°
2026-04-22 14:56 56.10217 37.69142 3880 ft 241 kts 141°
2026-04-22 14:56 56.08862 37.70673 3775 ft 227 kts 165°
2026-04-22 14:56 56.07377 37.71354 3618 ft 217 kts 171°
2026-04-22 14:57 56.05937 37.71944 3499 ft 207 kts 172°
2026-04-22 14:57 56.04586 37.71935 3367 ft 185 kts 208°
2026-04-22 14:57 56.03570 37.70710 3210 ft 173 kts 228°
2026-04-22 14:57 56.02768 37.69097 2867 ft 174 kts 232°
2026-04-22 14:58 56.01990 37.67443 2617 ft 174 kts 232°
2026-04-22 14:58 56.01213 37.65795 2523 ft 173 kts 232°
2026-04-22 14:58 56.00486 37.64079 2485 ft 174 kts 246°
2026-04-22 14:58 56.00189 37.62036 2508 ft 172 kts 259°
2026-04-22 14:59 55.99916 37.60009 2439 ft 162 kts 256°
2026-04-22 14:59 55.99628 37.58093 2237 ft 155 kts 256°
2026-04-22 14:59 55.99354 37.56274 2038 ft 152 kts 256°
2026-04-22 14:59 55.99092 37.54527 1862 ft 139 kts 255°
2026-04-22 15:00 55.98844 37.52881 1658 ft 135 kts 255°
2026-04-22 15:00 55.98595 37.51244 1452 ft 139 kts 255°
2026-04-22 15:00 55.98349 37.49546 1274 ft 143 kts 256°
2026-04-22 15:00 55.98090 37.47817 1034 ft 143 kts 254°
2026-04-22 15:01 55.97828 37.46103 871 ft 144 kts 256°
2026-04-22 15:01 55.97574 37.44374 675 ft 145 kts 255°
2026-04-22 15:01 55.97332 37.42747 641 ft 116 kts 255°
2026-04-22 15:01 55.97179 37.41730 639 ft 53 kts 255°
2026-04-22 15:02 55.97140 37.41470 646 ft 10 kts 255°
2026-04-22 15:02 55.97156 37.41360 639 ft 10 kts 319°
2026-04-22 15:02 55.97218 37.41321 638 ft 9 kts 345°
2026-04-22 15:02 55.97279 37.41293 638 ft 9 kts 345°
2026-04-22 15:03 55.97339 37.41264 639 ft 9 kts 345°
2026-04-22 15:03 55.97398 37.41236 639 ft 9 kts 345°
2026-04-22 15:03 55.97454 37.41208 638 ft 8 kts 346°
2026-04-22 15:03 55.97510 37.41189 641 ft 8 kts
2026-04-22 15:04 55.97545 37.41258 640 ft 8 kts 72°
2026-04-22 15:04 55.97559 37.41351 638 ft 8 kts 75°
2026-04-22 15:04 55.97573 37.41441 638 ft 7 kts 75°
2026-04-22 15:04 55.97586 37.41527 643 ft 7 kts 75°
2026-04-22 15:05 55.97610 37.41598 643 ft 7 kts 24°
2026-04-22 15:05 55.97656 37.41592 642 ft 7 kts 345°
2026-04-22 15:05 55.97702 37.41575 638 ft 7 kts 360°
2026-04-22 15:05 55.97748 37.41581 640 ft 7 kts 351°
2026-04-22 15:06 55.97777 37.41568 642 ft 7 kts 345°
2026-04-22 15:06 55.97829 37.41581 638 ft 7 kts 58°
2026-04-22 15:06 55.97837 37.41621 638 ft 3 kts 74°
2026-04-22 15:06 55.97839 37.41634 638 ft 0 kts 75°
2026-04-22 15:07 55.97839 37.41635 638 ft 0 kts 75°